User: anonymous   Login
Location: Arthurs Seat
(13.1500°N, 59.6000°W)
Time: 23:12:11
(UTC+00:00)
Language:

Cosmos 1937 Rocket - Orbit

View from above orbital plane
View from above orbital plane
View from above satellite
View from above satellite

Ground track
Ground track

The orbit data is extracted from the following two-line orbital elements,

1 19039U 88029B   19290.20391615  .00000065  00000-0  29749-4 0  9993
2 19039  74.0484 170.3577 0022945 134.1448 226.1598 14.38452437653354
Epoch (UTC): 17 October 2019 04:53:38
Eccentricity: 0.0022945
inclination: 74.0484°
perigee height: 747 km
apogee height: 780 km
right ascension of ascending node: 170.3577°
argument of perigee: 134.1448°
revolutions per day: 14.38452437
mean anomaly at epoch: 226.1598°
orbit number at epoch: 65335

The dashed part of the orbit path shows where the satellite is in the earth's shadow,  

DLR